Location: Newark
(26.0814°N, 97.8289°W)
Time: 20:30:43
(UTC+00:00)

LightSail 2 - Pass Details

Date: 25 January 2020
Orbit: 699 x 722 km, 24.0° (Epoch: 22 February)

Event Time Altitude Azimuth Distance (km) Brightness Sun altitude
Rises 02:28:30 0° 272° (W) 3,086 9.6 -31.3°
Reaches altitude 10° 02:31:01 10° 265° (W) 2,171 8.5 -31.9°
Enters shadow 02:34:27 34° 234° (SW) 1,148 6.5 -32.6°
